ONEWEB-0355 (49218 NORAD) Tracking and Keplerian Element Data

This shows tracking and keplerian element data for the satellite.

Feedback or suggestion? Click here.




ElementValue
Catalog49218
NameONEWEB-0355
Epoch Orbit592
Epoch Day288.25002315
Epoch Year2021
RAAN317.4376
Inclination87.2109
Eccentricity0.0017856
Argument of Perigee187.3256
Mean Anonmoly131.9189
Mean Motion14.91341899
Decay Rate-0.01386157
L11 49218U 21083AJ 21288.25002315 -.01386157 00000-0 -15135+0 0 9994
L22 49218 87.2109 317.4376 0017856 187.3256 131.9189 14.91341899 5920

Live tracking and technical data element details for ONEWEB-0355 (NORAD 49218). ONEWEB-0355 can be tracked NOW for your location showing map with azimuth and elevation plus other details from your city location.

Track the satellite on the map from your city or location and see movement details for azimuth, elevation, latitude, longitude, range, height, and movement on the map or in text.







IsCatalogInMostPopularTable: catalog: 49218, numindb: 9
Update: records affected: 1



GetName: 49218 ONEWEB-0355

Hit Count: updated at: Tue, 19 Oct 2021 08:01:39 GMT